ICEYE-X54

导读

ICEYE-X54是芬兰ICEYE公司运营的合成孔径雷达(SAR)卫星,于2025年6月23日发射,属于全球最大SAR卫星星座的一员。它具备最高0.5米分辨率成像能力,支持聚束、条带、扫描多种工作模式,可满足灾害监测、海事监控、保险风控等多场景需求,能全天候全天时提供近实时高可靠对地观测数据,助力可持续发展与应急响应决策。

Basic Information
目录编号:
64570
目录名称:
ICEYE-X54
国际标识:
2025-135AU
轨道中心:
EARTH
卫星名称:
ICEYE-X54
卫星全名:
ICEYE-X54
卫星状态:
在轨 (已飞行360 天)
发射日期:
2025-06-23 UTC
国别 :
(FI)
星等 :
--
Orbit Information
数据来源 国际轨道数据 AOE轨道数据
星历时间 2026-06-18T05:28:26+0800
11小时前
查看轨道信息
2026-06-16T04:00:00+0800
2天前
查看轨道信息
半长轴 6961.933km 6961.908km
偏心率 0.000133 0.0001253
轨道倾角 97.773° 97.773°
近地点辐角 346.380° 6.076°
升交点赤经 283.310° 281.269°
平近点角 13.738° 69.850°
近地点 582.87km 582.898km
远地点 584.722km 584.644km
周期 96.351分钟 96.350分钟
每日圈数 14.945417 14.945499
Detailed Information
使用方式:
暂无
2D Orbit Map
3D Orbit Map
Orbit Altitude Analysis Chart
Orbit Inclination Analysis Chart
Orbit Comprehensive Analysis Chart
View Comprehensive Chart